Weather History for KGYL - March, 2013

Change the Weather History Date:

Tuesday, March 12, 2013

  Actual Average (KHCD) Record (KHCD)
Temperature  
Mean Temperature 22 °F -  
Max Temperature 27 °F 37 °F 75 °F (2005)
Min Temperature 17 °F 21 °F -14 °F (1960)
Degree Days  
Heating Degree Days 43    
Moisture  
Dew Point 16 °F    
Average Humidity 77    
Maximum Humidity 87    
Minimum Humidity 65    
Precipitation  
Precipitation 0.00 in - - ()
Sea Level Pressure  
Sea Level Pressure 29.97 in    
Wind  
Wind Speed 11 mph (WNW)    
Max Wind Speed 25 mph    
Max Gust Speed 31 mph    
Visibility 9 miles    
Events Snow    
Averages and records for this station are not official NWS values.
T = Trace of Precipitation, MM = Missing Value Source: NWS Daily Summary

Daily Weather History Graph

Daily Weather History Graph

Search for Another Location

Airport or City:

Trip Planner

Search our weather history database for the weather conditions in past years. The results will help you decide how hot, cold, wet, or windy it might be!

Date:

Astronomy

Mar. 12, 2013 Rise Set
Actual Time 7:33 AM CDT 7:18 PM CDT
Civil Twilight 7:04 AM CDT 7:48 PM CDT
Nautical Twilight 6:30 AM CDT 8:22 PM CDT
Astronomical Twilight 5:56 AM CDT 8:56 PM CDT
Moon 7:36 AM CDT (3/12) 8:40 PM CDT (3/12)
Length of Visible Light 12h 43m
Length of Day
11h 45m
New Moon, 1% of the Moon is Illuminated
Mar 12
New Moon
Mar 19
First Quarter
Mar 27
Full
Apr 2
Last Quarter
Apr 10
New

Hourly Weather History & Observations

Time (CDT) Temp. Windchill Dew Point Humidity Pressure Visibility Wind Dir Wind Speed Gust Speed Precip Events Conditions
12:14 AM 22.1 °F 12.8 °F 15.3 °F 75% 29.84 in 10.0 mi West 8.1 mph - N/A   Overcast
12:34 AM 22.1 °F 14.7 °F 15.3 °F 75% 29.84 in 10.0 mi West 5.8 mph - N/A   Overcast
12:54 AM 22.1 °F 14.7 °F 15.6 °F 76% 29.84 in 10.0 mi West 5.8 mph - N/A   Overcast
1:14 AM 22.1 °F 12.8 °F 15.8 °F 77% 29.84 in 10.0 mi West 8.1 mph - N/A   Overcast
1:34 AM 22.1 °F 14.7 °F 16.2 °F 78% 29.83 in 10.0 mi West 5.8 mph - N/A   Overcast
1:54 AM 22.5 °F 15.1 °F 16.9 °F 79% 29.83 in 10.0 mi West 5.8 mph - N/A   Overcast
2:14 AM 22.1 °F 14.7 °F 17.1 °F 81% 29.84 in 10.0 mi West 5.8 mph - N/A   Overcast
2:34 AM 22.1 °F 15.9 °F 17.6 °F 83% 29.84 in 10.0 mi WSW 4.6 mph - N/A   Overcast
2:54 AM 22.6 °F 16.5 °F 18.5 °F 84% 29.83 in 10.0 mi WSW 4.6 mph - N/A   Overcast
3:14 AM 23.5 °F 15.4 °F 19.2 °F 84% 29.83 in 10.0 mi West 6.9 mph - N/A   Overcast
3:34 AM 23.9 °F 18.0 °F 19.8 °F 84% 29.83 in 7.0 mi West 4.6 mph - N/A Snow Light Snow
3:54 AM 23.7 °F 16.6 °F 19.9 °F 85% 29.82 in 7.0 mi WNW 5.8 mph - N/A Snow Light Snow
4:14 AM 23.5 °F 19.1 °F 20.1 °F 87% 29.82 in 4.0 mi WNW 3.5 mph - N/A Snow Light Snow
4:34 AM 23.5 °F 17.6 °F 19.9 °F 86% 29.83 in 10.0 mi NW 4.6 mph - N/A Snow Light Snow
4:54 AM 23.5 °F 17.6 °F 19.9 °F 86% 29.83 in 10.0 mi NW 4.6 mph - N/A   Overcast
5:14 AM 23.7 °F 16.6 °F 19.8 °F 85% 29.84 in 7.0 mi WNW 5.8 mph - N/A Snow Light Snow
5:34 AM 23.7 °F 14.7 °F 20.1 °F 86% 29.84 in 3.0 mi WNW 8.1 mph - N/A Snow Light Snow
5:54 AM 23.7 °F 13.3 °F 20.3 °F 87% 29.85 in 4.0 mi WNW 10.4 mph - N/A Snow Light Snow
6:14 AM 23.2 °F 13.3 °F 19.4 °F 85% 29.85 in 7.0 mi NW 9.2 mph - N/A Snow Light Snow
6:34 AM 22.5 °F 12.4 °F 17.8 °F 82% 29.86 in 10.0 mi WNW 9.2 mph - N/A   Overcast
6:54 AM 22.1 °F 12.0 °F 17.2 °F 82% 29.87 in 10.0 mi WNW 9.2 mph - N/A   Overcast
7:14 AM 21.7 °F 10.8 °F 16.3 °F 80% 29.87 in 10.0 mi WNW 10.4 mph - N/A   Overcast
7:34 AM 20.3 °F 9.0 °F 15.3 °F 81% 29.88 in 10.0 mi WNW 10.4 mph - N/A   Scattered Clouds
7:54 AM 19.2 °F 9.3 °F 14.4 °F 81% 29.89 in 10.0 mi WNW 8.1 mph - N/A   Mostly Cloudy
8:14 AM 18.5 °F 6.8 °F 14.0 °F 83% 29.90 in 10.0 mi WNW 10.4 mph - N/A   Mostly Cloudy
8:34 AM 18.9 °F 5.9 °F 14.4 °F 83% 29.90 in 10.0 mi WNW 12.7 mph - N/A   Mostly Cloudy
8:54 AM 18.5 °F 5.5 °F 14.0 °F 83% 29.91 in 10.0 mi WNW 12.7 mph - N/A   Overcast
9:14 AM 18.3 °F 4.6 °F 13.6 °F 82% 29.92 in 10.0 mi WNW 13.8 mph - N/A   Mostly Cloudy
9:34 AM 19.2 °F 7.0 °F 13.6 °F 79% 29.93 in 10.0 mi WNW 11.5 mph 17.3 mph N/A   Scattered Clouds
9:54 AM 20.3 °F 7.7 °F 14.0 °F 77% 29.93 in 7.0 mi WNW 12.7 mph - N/A   Scattered Clouds
10:14 AM 21.0 °F 8.6 °F 14.5 °F 76% 29.94 in 10.0 mi WNW 12.7 mph - N/A   Clear
10:34 AM 21.6 °F 8.8 °F 14.9 °F 76% 29.95 in 10.0 mi WNW 13.8 mph - N/A   Clear
10:54 AM 22.1 °F 8.9 °F 15.6 °F 76% 29.95 in 10.0 mi WNW 15.0 mph 19.6 mph N/A   Clear
11:14 AM 22.8 °F 10.4 °F 16.2 °F 76% 29.96 in 10.0 mi WNW 13.8 mph - N/A   Clear
11:34 AM 23.4 °F 9.6 °F 16.7 °F 76% 29.97 in 10.0 mi WNW 17.3 mph - N/A   Scattered Clouds
11:54 AM 23.9 °F 10.3 °F 17.1 °F 75% 29.97 in 7.0 mi WNW 17.3 mph - N/A   Mostly Cloudy
12:14 PM 24.1 °F 11.5 °F 17.6 °F 76% 29.98 in 5.0 mi WNW 15.0 mph - N/A   Haze
12:34 PM 24.6 °F 12.2 °F 17.8 °F 75% 29.98 in 7.0 mi WNW 15.0 mph 23.0 mph N/A   Overcast
12:54 PM 24.8 °F 10.3 °F 18.1 °F 76% 29.99 in 10.0 mi WNW 20.7 mph - N/A   Overcast
1:14 PM 25.3 °F 12.2 °F 18.3 °F 75% 29.99 in 10.0 mi WNW 17.3 mph - N/A   Mostly Cloudy
1:34 PM 25.3 °F 11.4 °F 18.3 °F 75% 29.99 in 10.0 mi WNW 19.6 mph 27.6 mph N/A   Mostly Cloudy
1:54 PM 25.7 °F 11.5 °F 17.8 °F 72% 30.00 in 10.0 mi WNW 20.7 mph - N/A   Mostly Cloudy
2:14 PM 26.2 °F 11.9 °F 17.1 °F 68% 30.00 in 10.0 mi WNW 21.9 mph 26.5 mph N/A   Overcast
2:34 PM 25.9 °F 12.1 °F 16.9 °F 69% 30.00 in 10.0 mi West 19.6 mph 25.3 mph N/A   Overcast
2:54 PM 26.2 °F 12.2 °F 16.5 °F 67% 30.00 in 10.0 mi WNW 20.7 mph 27.6 mph N/A   Mostly Cloudy
3:14 PM 26.4 °F 12.5 °F 16.5 °F 66% 30.00 in 10.0 mi WNW 20.7 mph 28.8 mph N/A   Mostly Cloudy
3:34 PM 26.6 °F 13.8 °F 17.4 °F 68% 30.00 in 10.0 mi WNW 17.3 mph 26.5 mph N/A Snow Light Snow
3:54 PM 27.0 °F 12.2 °F 16.7 °F 65% 30.01 in 10.0 mi WNW 24.2 mph 31.1 mph N/A   Overcast
4:14 PM 26.2 °F 11.9 °F 16.5 °F 67% 30.02 in 10.0 mi WNW 21.9 mph 28.8 mph N/A   Overcast
4:34 PM 26.2 °F 10.9 °F 16.9 °F 68% 30.02 in 10.0 mi WNW 25.3 mph 31.1 mph N/A   Overcast
4:54 PM 25.7 °F 11.2 °F 16.9 °F 69% 30.03 in 10.0 mi WNW 21.9 mph 27.6 mph N/A   Overcast
5:14 PM 24.6 °F 10.5 °F 16.0 °F 70% 30.04 in 10.0 mi WNW 19.6 mph 25.3 mph N/A   Mostly Cloudy
5:34 PM 24.8 °F 10.3 °F 16.0 °F 69% 30.05 in 10.0 mi WNW 20.7 mph 27.6 mph N/A   Scattered Clouds
5:54 PM 24.4 °F 8.8 °F 17.1 °F 73% 30.06 in 10.0 mi WNW 24.2 mph 29.9 mph N/A   Scattered Clouds
6:14 PM 23.9 °F 9.5 °F 16.3 °F 73% 30.06 in 10.0 mi WNW 19.6 mph 27.6 mph N/A   Overcast
6:34 PM 23.7 °F 9.7 °F 16.2 °F 73% 30.07 in 10.0 mi WNW 18.4 mph 26.5 mph N/A   Mostly Cloudy
6:54 PM 23.5 °F 9.4 °F 15.8 °F 72% 30.08 in 10.0 mi WNW 18.4 mph 26.5 mph N/A   Scattered Clouds
7:14 PM 23.0 °F 9.2 °F 15.4 °F 73% 30.09 in 10.0 mi WNW 17.3 mph 24.2 mph N/A   Clear
7:34 PM 22.5 °F 8.0 °F 14.9 °F 73% 30.10 in 10.0 mi WNW 18.4 mph 25.3 mph N/A   Clear
7:54 PM 22.1 °F 7.2 °F 14.5 °F 73% 30.11 in 10.0 mi WNW 19.6 mph 25.3 mph N/A   Clear
8:14 PM 21.7 °F 7.5 °F 14.4 °F 73% 30.12 in 10.0 mi WNW 17.3 mph 21.9 mph N/A   Clear
8:34 PM 21.6 °F 6.9 °F 14.0 °F 73% 30.13 in 10.0 mi WNW 18.4 mph 23.0 mph N/A   Clear
8:54 PM 21.2 °F 7.3 °F 13.8 °F 73% 30.14 in 10.0 mi WNW 16.1 mph - N/A   Clear
9:14 PM 20.8 °F 7.9 °F 13.8 °F 74% 30.15 in 10.0 mi WNW 13.8 mph - N/A   Clear
9:34 PM 20.3 °F 6.6 °F 14.0 °F 77% 30.16 in 10.0 mi WNW 15.0 mph - N/A   Clear
9:54 PM 19.8 °F 6.5 °F 13.6 °F 77% 30.17 in 10.0 mi WNW 13.8 mph - N/A   Clear
10:14 PM 19.4 °F 6.0 °F 13.6 °F 78% 30.17 in 10.0 mi WNW 13.8 mph - N/A   Clear
10:34 PM 19.0 °F 5.6 °F 13.1 °F 78% 30.18 in 10.0 mi WNW 13.8 mph - N/A   Clear
10:54 PM 18.5 °F 4.3 °F 13.1 °F 79% 30.18 in 10.0 mi WNW 15.0 mph - N/A   Clear
11:14 PM 18.3 °F 4.6 °F 12.9 °F 79% 30.19 in 10.0 mi WNW 13.8 mph - N/A   Clear
11:34 PM 17.8 °F 4.6 °F 12.7 °F 81% 30.20 in 10.0 mi WNW 12.7 mph - N/A   Clear
11:54 PM 17.2 °F 4.5 °F 12.2 °F 81% 30.21 in 10.0 mi WNW 11.5 mph - N/A   Clear